Time,TemperatureF,DewpointF,PressureIn,WindDirection,WindDirectionDegrees,WindSpeedMPH,WindSpeedGustMPH,Humidity,HourlyPrecipIn,Conditions,Clouds,dailyrainin,SoftwareType,DateUTC
2013-06-27 00:02:00,79.8,74.0,29.93,SSW,200,0.0,5.0,83,0.00,,,0.00,weatherlink.com 1.10,2013-06-27 05:02:00,
2013-06-27 00:17:00,79.4,74.0,29.93,SSW,197,1.0,6.0,84,0.00,,,0.00,weatherlink.com 1.10,2013-06-27 05:17:00,
2013-06-27 00:32:00,79.1,74.0,29.93,South,190,2.0,6.0,84,0.00,,,0.00,weatherlink.com 1.10,2013-06-27 05:32:00,
2013-06-27 00:47:00,78.8,74.0,29.93,South,177,4.0,7.0,85,0.00,,,0.00,weatherlink.com 1.10,2013-06-27 05:47:00,
2013-06-27 01:02:00,78.6,74.0,29.93,South,182,5.0,7.0,85,0.00,,,0.00,weatherlink.com 1.10,2013-06-27 06:02:00,
2013-06-27 01:17:00,78.4,74.0,29.93,SSW,196,2.0,6.0,86,0.00,,,0.00,weatherlink.com 1.10,2013-06-27 06:17:00,
2013-06-27 01:32:00,78.1,74.0,29.93,South,191,2.0,6.0,87,0.00,,,0.00,weatherlink.com 1.10,2013-06-27 06:32:00,
2013-06-27 01:47:00,77.8,74.0,29.93,SSW,194,3.0,4.0,87,0.00,,,0.00,weatherlink.com 1.10,2013-06-27 06:47:00,
2013-06-27 02:02:00,77.5,74.0,29.93,South,176,0.0,6.0,88,0.00,,,0.00,weatherlink.com 1.10,2013-06-27 07:02:00,
2013-06-27 02:17:00,77.4,74.0,29.93,SW,215,2.0,8.0,89,0.00,,,0.00,weatherlink.com 1.10,2013-06-27 07:17:00,
2013-06-27 02:33:00,77.3,74.0,29.93,SSW,192,0.0,5.0,89,0.00,,,0.00,weatherlink.com 1.10,2013-06-27 07:33:00,
2013-06-27 02:48:00,77.1,74.0,29.93,South,175,2.0,4.0,90,0.00,,,0.00,weatherlink.com 1.10,2013-06-27 07:48:00,
2013-06-27 03:03:00,77.0,74.0,29.94,SSE,165,0.0,4.0,90,0.00,,,0.00,weatherlink.com 1.10,2013-06-27 08:03:00,
2013-06-27 03:18:00,76.9,74.0,29.95,SSW,205,0.0,2.0,90,0.00,,,0.00,weatherlink.com 1.10,2013-06-27 08:18:00,
2013-06-27 03:33:00,76.7,74.0,29.95,SE,142,0.0,3.0,90,0.00,,,0.00,weatherlink.com 1.10,2013-06-27 08:33:00,
2013-06-27 03:48:00,76.4,74.0,29.95,South,178,0.0,2.0,91,0.00,,,0.00,weatherlink.com 1.10,2013-06-27 08:48:00,
2013-06-27 04:03:00,76.1,73.0,29.95,South,179,0.0,1.0,91,0.00,,,0.00,weatherlink.com 1.10,2013-06-27 09:03:00,
2013-06-27 04:18:00,75.9,74.0,29.96,SSE,168,0.0,0.0,92,0.00,,,0.00,weatherlink.com 1.10,2013-06-27 09:18:00,
2013-06-27 04:33:00,75.6,73.0,29.95,SSE,168,0.0,1.0,92,0.00,,,0.00,weatherlink.com 1.10,2013-06-27 09:33:00,
2013-06-27 04:48:00,75.3,73.0,29.96,SSE,168,0.0,0.0,92,0.00,,,0.00,weatherlink.com 1.10,2013-06-27 09:48:00,
2013-06-27 05:03:00,75.1,73.0,29.96,SSE,168,0.0,0.0,93,0.00,,,0.00,weatherlink.com 1.10,2013-06-27 10:03:00,
2013-06-27 05:18:00,74.9,73.0,29.97,SSE,168,0.0,0.0,93,0.00,,,0.00,weatherlink.com 1.10,2013-06-27 10:18:00,
2013-06-27 05:33:00,74.7,73.0,29.97,SSE,168,0.0,0.0,93,0.00,,,0.00,weatherlink.com 1.10,2013-06-27 10:33:00,
2013-06-27 05:48:00,74.4,72.0,29.97,SSE,168,0.0,0.0,93,0.00,,,0.00,weatherlink.com 1.10,2013-06-27 10:48:00,
2013-06-27 06:03:00,74.2,72.0,29.98,SSE,168,0.0,0.0,93,0.00,,,0.00,weatherlink.com 1.10,2013-06-27 11:03:00,
2013-06-27 06:18:00,74.0,72.0,29.98,SSE,168,0.0,0.0,94,0.00,,,0.00,weatherlink.com 1.10,2013-06-27 11:18:00,
2013-06-27 06:33:00,73.8,72.0,29.98,SSE,168,0.0,0.0,94,0.00,,,0.00,weatherlink.com 1.10,2013-06-27 11:33:00,
2013-06-27 06:48:00,73.8,72.0,29.99,SSE,168,0.0,0.0,94,0.00,,,0.00,weatherlink.com 1.10,2013-06-27 11:48:00,
2013-06-27 07:03:00,73.9,72.0,29.99,SSE,168,0.0,0.0,95,0.00,,,0.00,weatherlink.com 1.10,2013-06-27 12:03:00,
2013-06-27 07:18:00,74.4,73.0,30.00,SSE,168,0.0,1.0,95,0.00,,,0.00,weatherlink.com 1.10,2013-06-27 12:18:00,
2013-06-27 07:33:00,75.6,74.0,30.00,SSE,168,0.0,3.0,96,0.00,,,0.00,weatherlink.com 1.10,2013-06-27 12:33:00,
2013-06-27 07:48:00,76.7,75.0,30.00,SSE,163,0.0,3.0,95,0.00,,,0.00,weatherlink.com 1.10,2013-06-27 12:48:00,
2013-06-27 08:03:00,77.9,76.0,30.00,South,170,2.0,6.0,93,0.00,,,0.00,weatherlink.com 1.10,2013-06-27 13:03:00,
2013-06-27 08:18:00,79.4,76.0,30.00,SSE,167,3.0,6.0,90,0.00,,,0.00,weatherlink.com 1.10,2013-06-27 13:18:00,
2013-06-27 08:33:00,81.0,77.0,30.00,South,187,3.0,6.0,87,0.00,,,0.00,weatherlink.com 1.10,2013-06-27 13:33:00,
2013-06-27 08:48:00,82.0,77.0,30.00,SW,234,3.0,8.0,84,0.00,,,0.00,weatherlink.com 1.10,2013-06-27 13:48:00,
2013-06-27 09:03:00,82.4,76.0,30.01,SSE,154,5.0,10.0,82,0.00,,,0.00,weatherlink.com 1.10,2013-06-27 14:03:00,
2013-06-27 09:18:00,83.2,77.0,30.00,SW,235,6.0,8.0,81,0.00,,,0.00,weatherlink.com 1.10,2013-06-27 14:18:00,
2013-06-27 09:33:00,84.2,77.0,30.00,WSW,238,4.0,8.0,78,0.00,,,0.00,weatherlink.com 1.10,2013-06-27 14:33:00,
2013-06-27 09:48:00,85.4,77.0,29.99,WSW,254,4.0,10.0,75,0.00,,,0.00,weatherlink.com 1.10,2013-06-27 14:48:00,
2013-06-27 10:03:00,86.2,76.0,29.99,SSW,196,6.0,10.0,72,0.00,,,0.00,weatherlink.com 1.10,2013-06-27 15:03:00,
2013-06-27 10:19:00,86.9,77.0,29.99,SSW,204,2.0,9.0,73,0.00,,,0.00,weatherlink.com 1.10,2013-06-27 15:19:00,
2013-06-27 10:34:00,86.8,76.0,29.99,South,180,3.0,10.0,70,0.00,,,0.00,weatherlink.com 1.10,2013-06-27 15:34:00,
2013-06-27 10:49:00,87.7,76.0,29.98,SSW,211,4.0,8.0,69,0.00,,,0.00,weatherlink.com 1.10,2013-06-27 15:49:00,
2013-06-27 11:04:00,88.4,76.0,29.98,South,176,5.0,8.0,67,0.00,,,0.00,weatherlink.com 1.10,2013-06-27 16:04:00,
2013-06-27 11:19:00,89.2,76.0,29.98,SSW,198,2.0,9.0,65,0.00,,,0.00,weatherlink.com 1.10,2013-06-27 16:19:00,
2013-06-27 11:34:00,90.0,78.0,29.97,West,265,1.0,8.0,67,0.00,,,0.00,weatherlink.com 1.10,2013-06-27 16:34:00,
2013-06-27 11:49:00,90.6,75.0,29.97,SSW,204,7.0,10.0,61,0.00,,,0.00,weatherlink.com 1.10,2013-06-27 16:49:00,
2013-06-27 12:04:00,91.1,76.0,29.97,SSW,202,1.0,8.0,61,0.00,,,0.00,weatherlink.com 1.10,2013-06-27 17:04:00,
2013-06-27 12:19:00,89.7,77.0,29.96,SSW,197,0.0,7.0,67,0.00,,,0.00,weatherlink.com 1.10,2013-06-27 17:19:00,
2013-06-27 12:34:00,90.6,75.0,29.96,WNW,298,4.0,7.0,61,0.00,,,0.00,weatherlink.com 1.10,2013-06-27 17:34:00,
2013-06-27 12:49:00,91.0,74.0,29.95,South,171,2.0,8.0,58,0.00,,,0.00,weatherlink.com 1.10,2013-06-27 17:49:00,
2013-06-27 13:04:00,92.1,75.0,29.95,WSW,245,3.0,5.0,57,0.00,,,0.00,weatherlink.com 1.10,2013-06-27 18:04:00,
2013-06-27 13:19:00,92.4,77.0,29.95,South,176,1.0,7.0,61,0.00,,,0.00,weatherlink.com 1.10,2013-06-27 18:19:00,
2013-06-27 13:34:00,92.4,74.0,29.95,SW,219,4.0,6.0,56,0.00,,,0.00,weatherlink.com 1.10,2013-06-27 18:34:00,
2013-06-27 13:49:00,93.0,74.0,29.94,SSW,206,4.0,8.0,55,0.00,,,0.00,weatherlink.com 1.10,2013-06-27 18:49:00,
2013-06-27 14:04:00,92.4,73.0,29.93,SW,222,3.0,8.0,54,0.00,,,0.00,weatherlink.com 1.10,2013-06-27 19:04:00,
2013-06-27 14:19:00,92.6,74.0,29.93,ESE,103,0.0,5.0,54,0.00,,,0.00,weatherlink.com 1.10,2013-06-27 19:19:00,
2013-06-27 14:34:00,92.3,74.0,29.93,South,173,0.0,6.0,56,0.00,,,0.00,weatherlink.com 1.10,2013-06-27 19:34:00,
2013-06-27 14:49:00,93.8,74.0,29.93,SW,219,0.0,6.0,52,0.00,,,0.00,weatherlink.com 1.10,2013-06-27 19:49:00,
2013-06-27 15:04:00,94.3,73.0,29.92,WSW,240,3.0,7.0,51,0.00,,,0.00,weatherlink.com 1.10,2013-06-27 20:04:00,
2013-06-27 15:19:00,94.7,72.0,29.92,WSW,246,4.0,8.0,48,0.00,,,0.00,weatherlink.com 1.10,2013-06-27 20:19:00,
2013-06-27 15:34:00,94.2,72.0,29.92,South,188,1.0,7.0,49,0.00,,,0.00,weatherlink.com 1.10,2013-06-27 20:34:00,
2013-06-27 15:49:00,94.2,71.0,29.91,South,169,1.0,4.0,47,0.00,,,0.00,weatherlink.com 1.10,2013-06-27 20:49:00,
2013-06-27 16:04:00,94.6,73.0,29.90,East,91,3.0,4.0,49,0.00,,,0.00,weatherlink.com 1.10,2013-06-27 21:04:00,
2013-06-27 16:19:00,94.4,76.0,29.90,WNW,302,2.0,4.0,55,0.00,,,0.00,weatherlink.com 1.10,2013-06-27 21:19:00,
2013-06-27 16:34:00,94.1,76.0,29.90,WNW,295,0.0,5.0,55,0.00,,,0.00,weatherlink.com 1.10,2013-06-27 21:34:00,
2013-06-27 17:04:00,94.0,75.0,29.90,NNW,347,1.0,8.0,55,0.00,,,0.00,weatherlink.com 1.10,2013-06-27 22:04:00,
2013-06-27 17:19:00,93.6,74.0,29.90,South,177,0.0,6.0,53,0.00,,,0.00,weatherlink.com 1.10,2013-06-27 22:19:00,
2013-06-27 17:34:00,93.7,73.0,29.89,NE,38,0.0,4.0,52,0.00,,,0.00,weatherlink.com 1.10,2013-06-27 22:34:00,
2013-06-27 17:49:00,94.3,74.0,29.89,NE,43,0.0,3.0,52,0.00,,,0.00,weatherlink.com 1.10,2013-06-27 22:49:00,
2013-06-27 18:04:00,94.9,74.0,29.89,South,169,0.0,1.0,51,0.00,,,0.00,weatherlink.com 1.10,2013-06-27 23:04:00,
2013-06-27 18:19:00,93.9,73.0,29.88,NE,49,0.0,1.0,51,0.00,,,0.00,weatherlink.com 1.10,2013-06-27 23:19:00,
2013-06-27 18:49:00,91.5,75.0,29.88,North,5,0.0,0.0,59,0.00,,,0.00,weatherlink.com 1.10,2013-06-27 23:49:00,
2013-06-27 19:04:00,91.1,75.0,29.88,North,5,0.0,0.0,60,0.00,,,0.00,weatherlink.com 1.10,2013-06-28 00:04:00,
2013-06-27 19:19:00,90.6,76.0,29.88,North,5,0.0,0.0,63,0.00,,,0.00,weatherlink.com 1.10,2013-06-28 00:19:00,
2013-06-27 19:34:00,90.0,77.0,29.88,North,5,0.0,0.0,66,0.00,,,0.00,weatherlink.com 1.10,2013-06-28 00:34:00,
2013-06-27 20:04:00,88.4,78.0,29.88,North,5,0.0,0.0,70,0.00,,,0.00,weatherlink.com 1.10,2013-06-28 01:04:00,
2013-06-27 20:19:00,87.1,78.0,29.88,North,5,0.0,0.0,73,0.00,,,0.00,weatherlink.com 1.10,2013-06-28 01:19:00,
2013-06-27 20:34:00,85.9,77.0,29.88,North,5,0.0,0.0,75,0.00,,,0.00,weatherlink.com 1.10,2013-06-28 01:34:00,
2013-06-27 21:05:00,83.6,76.0,29.88,North,5,0.0,0.0,78,0.00,,,0.00,weatherlink.com 1.10,2013-06-28 02:05:00,
2013-06-27 21:20:00,82.6,76.0,29.88,North,5,0.0,0.0,79,0.00,,,0.00,weatherlink.com 1.10,2013-06-28 02:20:00,
2013-06-27 21:35:00,81.9,75.0,29.87,North,5,0.0,0.0,80,0.00,,,0.00,weatherlink.com 1.10,2013-06-28 02:35:00,
2013-06-27 22:05:00,80.7,75.0,29.88,North,5,0.0,0.0,82,0.00,,,0.00,weatherlink.com 1.10,2013-06-28 03:05:00,
2013-06-27 22:20:00,80.2,74.0,29.88,North,5,0.0,0.0,82,0.00,,,0.00,weatherlink.com 1.10,2013-06-28 03:20:00,
2013-06-27 22:35:00,80.0,74.0,29.88,North,5,0.0,0.0,83,0.00,,,0.00,weatherlink.com 1.10,2013-06-28 03:35:00,
2013-06-27 22:50:00,79.7,74.0,29.89,North,5,0.0,0.0,83,0.00,,,0.00,weatherlink.com 1.10,2013-06-28 03:50:00,
2013-06-27 23:05:00,79.4,74.0,29.90,North,5,0.0,0.0,83,0.00,,,0.00,weatherlink.com 1.10,2013-06-28 04:05:00,
2013-06-27 23:20:00,79.2,74.0,29.91,North,5,0.0,0.0,84,0.00,,,0.00,weatherlink.com 1.10,2013-06-28 04:20:00,
2013-06-27 23:35:00,78.8,74.0,29.91,North,5,0.0,0.0,84,0.00,,,0.00,weatherlink.com 1.10,2013-06-28 04:35:00,
2013-06-27 23:50:00,78.4,74.0,29.92,ESE,111,0.0,2.0,85,0.00,,,0.00,weatherlink.com 1.10,2013-06-28 04:50:00,